Tracking 35237 objects as of 5-Sep-2026
HD Live streaming from Space Station
objects crossing your sky now

SL-8 DEB


SL-8 DEB is no longer on orbit


NORAD ID: 1397
Int'l Code: 1965-020AJ
Launch date: March 15, 1965
Source: Commonwealth of Independent States (former USSR) (CIS)
Launch site: TYURATAM MISSILE AND SPACE COMPLEX (TTMTR)
Decay date: 1968-04-06

Note: This is SATELLITE DEBRIS
Your satellite tracking list
Your tracking list is empty




NASA's NSSDC Master Catalog

Two Line Element Set (TLE):
1 01397U 65020 AJ 68090.39296637  .01195930 +00000-0 +00000-0 0  9999
2 01397 056.1302 081.4460 0075361 228.5209 130.9266 15.82782932154219
Source of the keplerian elements: AFSPC